Вернуться в каталог

ESSAIM-2

АктивенВоенныеSSO
NORAD 28495·PAYLOAD·🇫🇷 France

Запущен Dec 18, 2004 с Guiana Space Centre

Loading…

Ближайшие Пролёты (ближайшие 24 часа)

TLE

СвежийSource: Space-Track

Эпоха: Sep 14, 2026, 04:45 UTC

1 28495U 04049D   26257.19820867  .00001021  00000-0  10873-3 0  9994
2 28495  98.2187 167.9487 0001846 130.4808 229.6571 14.91265215173807

Отслеживайте ESSAIM-2 в реальном времени с AllMySat

Download on the App Store